Regional Weather Roundup
Issued by NWS Cleveland, OH

Current Version | Previous Version | Text Only | Print | Product List | Glossary On
Versions: 1 2 3 4 5 6 7 8 9 10 11 12 13 14 15 16 17 18 19 20 21 22 23 24 25 26 27 28 29 30 31 32 33 34 35 36 37 38 39 40 41 42 43 44 45 46 47 48 49 50
000 ASUS41 KCLE 241712 RWRCLE OHIO REGIONAL WEATHER ROUNDUP NATIONAL WEATHER SERVICE WILMINGTON, OH 100 PM EDT SUN SEP 24 2017 NOTE: "FAIR" INDICATES FEW OR NO CLOUDS BELOW 12,000 FEET WITH NO SIGNIFICANT WEATHER AND/OR OBSTRUCTIONS TO VISIBILITY. OHZ001>008-015>018-024>027-034-035-043-044-241800- NORTHWEST OHIO CITY SKY/WX TMP DP RH WIND PRES REMARKS DEFIANCE FAIR 86 57 37 SE10 30.13F FINDLAY FAIR 87 58 37 SE9 30.14F TOLEDO EXPRESS FAIR 88 59 37 VRB6 30.13F TOLEDO EXEC FAIR 88 60 38 SE8 30.14F LIMA FAIR 89 54 30 SE15 30.14F $$ OHZ009>014-019>023-028>033-038-089-241800- NORTHEAST OHIO CITY SKY/WX TMP DP RH WIND PRES REMARKS CLE-HOPKINS FAIR 91 63 39 VRB7 30.16F HX 92 CLE-LAKEFRONT FAIR 79 69 71 N6 30.15F CUY CO. ARPT SUNNY 90 66 45 SE8 30.17F HX 92 LORAIN-ELYRIA FAIR 88 60 38 E5 30.16F ASHTABULA FAIR 85 65 51 SE5 30.18F AKRON-CANTON FAIR 88 61 40 SE5 30.17F WOOSTER FAIR 87 62 43 E9 30.17F MANSFIELD FAIR 86 63 45 E10 30.17F YOUNGSTOWN FAIR 87 66 49 NE5 30.18F $$ OHZ042-051>053-060>062-070>072-077>081-241800- SOUTHWEST OHIO CITY SKY/WX TMP DP RH WIND PRES REMARKS CINC-COVINGTON FAIR 85 64 49 SE8 30.11F CINC-LUNKEN FAIR 87 64 46 S7 30.10F HAMILTON FAIR 85 61 44 SE3 30.11F DAYTON FAIR 84 60 44 SE7 30.14F WRIGHT-PAT AFB FAIR 87 56 34 S9 30.12F DAYTON GENERAL FAIR 85 58 39 SE8 30.12F WILMINGTON FAIR 84 58 40 SE8 30.13F $$ OHZ036-037-039>041-045>050-054>059-063>069-073>076-082>088-241800- CENTRAL AND SOUTHEAST OHIO CITY SKY/WX TMP DP RH WIND PRES REMARKS COLUMBUS FAIR 87 58 37 VRB7 30.13F OSU AIRPORT FAIR 86 60 41 SE8 30.14F BOLTON FIELD SUNNY 84 61 45 E8 30.15F RICKENBACK AFB FAIR 86 56 36 SE6 30.13S NEWARK FAIR 87 58 37 SE8 30.14F MARION FAIR 88 56 33 S10 30.15F LANCASTER FAIR 83 61 47 S5 30.15F ZANESVILLE FAIR 87 59 38 E6 30.15F NEW PHILLY FAIR 90 62 39 VRB6 30.15F HX 90 $$

USA.gov is the U.S. government's official web portal to all federal, state and local government web resources and services.